Content
SEND FEEDBACK

Daily
Averages
Monthly
Summary
United States of America

SWANNANOA, NORTH CAROLINA


Home > North America > United States > North Carolina
Elevation: 2265 feet     Latitude: 35 36N     Longitude: 082 32W

WEATHER
 
SELECT A DAY
Number of Records: 229,403;   Date Range: 1/1/95 - 10/18/14
 
SHARE

PRINT THIS DATA

[ ← Previous Day ]
WEATHER ALMANAC - MARCH 26, 2013
[ Next Day → ]
[ °C ]   °F
Weather ElementAverageHighLow
Temperature32.2 °F37.9 °F (3:54 pm)28 °F (3:54 am)
Dewpoint22.2 °F25 °F (9:54 pm)19.9 °F (11:54 am)
Humidity66.9 %79 % (9:54 pm)50 % (1:54 pm)
Barometer30.04 in30.19 in (10:54 pm)29.91 in (1:54 am)
Wind Speed15.5 mph21.9 mph (10:54 am)
Wind Gust31.1 mph (9:54 am)
Weather ElementAverage
Visibility9.8 mi
Wind DirectionNNW (339.6 °)

Weather ElementTotal
Precipitation---
Heating Degree Days32.1 (Base 65)
Averaged from 24 records on March 26, 2013
WEATHER CONDITIONS BREAKOUT
WIND DIRECTION BREAKOUT
WEATHER BY HOUR - MARCH 26, 2013
[ °C ]   °F
Local TimeTemperatureDewpointHumidityBarometerVisibilityWind DirectionWind SpeedGust SpeedPrecipitationEventsConditions
1:54 AM28.9 °F21.0 °F72 %29.91 in10.0 miNW (320°)12.7 mph0.00 inOvercast
2:54 AM28.9 °F21.9 °F75 %29.91 in9.0 miNNW (330°)12.7 mph21.9 mph0.00 inSnowLight Snow
3:54 AM28.0 °F21.0 °F75 %29.91 in10.0 miNNW (330°)17.3 mph23.0 mph0.00 inOvercast
4:54 AM28.9 °F21.0 °F72 %29.91 in10.0 miNNW (340°)12.7 mph21.9 mph0.00 inOvercast
5:54 AM28.9 °F21.0 °F72 %29.91 in10.0 miNNW (340°)19.6 mph27.6 mph0.00 inOvercast
6:54 AM28.9 °F21.0 °F72 %29.92 in10.0 miNorth (350°)12.7 mph24.2 mph0.00 inOvercast
7:54 AM28.9 °F21.9 °F75 %29.94 in10.0 miNNW (340°)15.0 mph21.9 mph0.00 inOvercast
8:54 AM30.9 °F21.9 °F69 %29.95 in10.0 miNNW (330°)18.4 mph28.8 mph0.00 inMostly Cloudy
9:54 AM34.0 °F21.9 °F61 %29.99 in10.0 miNNW (340°)20.7 mph31.1 mphOvercast
10:54 AM34.0 °F21.9 °F61 %30.01 in10.0 miNNW (330°)21.9 mph29.9 mph0.00 inSnowLight Snow
11:54 AM34.0 °F19.9 °F56 %30.04 in10.0 miNNW (340°)20.7 mph29.9 mph0.00 inOvercast
12:54 PM36.0 °F21.0 °F55 %30.05 in10.0 miNNW (340°)17.3 mph25.3 mphOvercast
1:54 PM37.0 °F19.9 °F50 %30.05 in10.0 miNorth (350°)19.6 mph26.5 mphOvercast
2:54 PM36.0 °F23.0 °F59 %30.06 in10.0 miNorth (360°)13.8 mph20.7 mphOvercast
3:54 PM37.9 °F21.9 °F53 %30.07 in9.0 miNNW (340°)19.6 mph25.3 mph0.00 inOvercast
4:54 PM36.0 °F24.1 °F62 %30.08 in10.0 miNW (320°)18.4 mph25.3 mph0.00 inSnowLight Snow
5:54 PM34.0 °F24.1 °F67 %30.10 in10.0 miNNW (340°)12.7 mph20.7 mph0.00 inOvercast
6:25 PM33.8 °F23.0 °F65 %30.08 in8.0 miNNW (340°)16.1 mph24.2 mph0.00 inSnowLight Snow
6:54 PM34.0 °F23.0 °F64 %30.12 in10.0 miNNW (330°)12.7 mph19.6 mph0.00 inOvercast
7:54 PM32.0 °F23.0 °F69 %30.14 in10.0 miNNW (340°)13.8 mph25.3 mphOvercast
8:54 PM30.9 °F23.0 °F72 %30.16 in10.0 miNNW (340°)11.5 mphPartly Cloudy
9:54 PM30.9 °F25.0 °F79 %30.17 in9.0 miNorth (350°)10.4 mph23.0 mph0.00 inSnowLight Snow
10:54 PM30.0 °F24.1 °F79 %30.19 in10.0 miNorth (360°)10.4 mph19.6 mph0.00 inClear
11:54 PM30.9 °F23.0 °F72 %30.19 in10.0 miNorth (350°)11.5 mphScattered Clouds
Hourly data recorded from KAVL, located miles away from Swannanoa, North Carolina







STORIES FROM OUR PARTNERS